Dewpoint
57 40 42 38 26 18 15 22 22 24 34 38 42 50 49 51 52 52 61 58 60 64 60 65 71 71 70 70 70 69 71 72 72 71 71 71 70 70 68 68 67 67 68 68 68 67 69 69 70
42 36 37 30 20 11 13 21 22 25 28 33 42 48 49 49 51 54 58 54 59 65 60 63 71 71 70 70 70 70 70 71 71 71 71 71 71 70 68 67 67 66 67 68 69 69 68 69 69
36 31 29 20 10 9 18 22 24 24 30 37 40 45 46 48 45 46 47 55 62 65 60 67 71 71 71 70 71 70 70 70 71 71 71 71 70 69 69 67 67 68 68 68 68 68 69 69 69
32 29 22 15 7 20 21 23 24 23 26 34 38 37 37 38 39 38 43 54 65 64 59 68 70 70 71 71 71 70 71 70 71 70 70 70 70 70 69 69 68 68 67 67 68 69 69 69 69
27 23 15 16 18 20 23 25 24 23 24 28 35 34 34 35 37 38 39 51 63 65 64 65 70 69 70 70 70 71 70 70 70 69 69 69 69 69 68 68 68 68 67 65 67 69 68 69 68
25 20 10 11 17 21 23 25 24 22 21 23 28 31 32 35 37 39 39 42 63 67 66 65 69 70 70 70 70 70 70 70 70 70 70 69 69 69 69 67 66 66 65 64 65 68 68 68 68
24 18 16 15 19 20 24 26 25 25 22 24 27 25 30 33 36 37 40 43 56 67 67 67 66 66 69 69 70 70 70 70 71 71 70 70 70 69 68 67 66 65 64 65 66 67 68 68 68
26 21 16 18 16 21 27 25 27 25 24 27 27 22 26 32 34 36 39 44 46 50 57 60 64 68 66 64 68 68 69 70 70 70 68 68 68 68 68 67 66 65 64 66 66 66 67 67 67
32 22 17 19 17 23 25 22 24 25 21 19 23 25 30 32 34 35 37 40 42 43 46 51 60 62 66 66 66 68 68 68 68 68 67 66 66 65 65 63 64 66 65 64 65 66 67 67 67
30 23 21 22 22 21 22 22 22 22 20 20 21 26 29 30 32 32 32 35 40 42 43 46 48 60 62 65 68 66 66 66 66 65 66 64 64 63 61 61 63 64 64 65 64 66 67 65 61
27 24 24 23 26 28 26 25 27 25 24 19 19 23 28 30 30 31 30 32 37 42 45 47 47 49 52 56 61 68 68 68 68 66 66 65 64 61 59 58 57 58 60 58 61 62 60 57 59
22 24 23 27 30 30 28 28 26 27 25 24 25 27 28 28 31 33 32 32 36 43 47 49 49 49 50 52 52 57 67 67 68 66 66 66 65 63 59 58 56 55 56 55 58 61 55 53 60
23 24 25 28 30 30 30 30 28 27 27 26 27 29 29 29 30 33 34 36 38 41 44 44 47 47 47 47 49 51 54 65 66 66 65 66 65 64 61 57 57 54 55 54 63 61 58 57 60
28 29 28 30 29 28 28 27 27 25 27 27 28 27 27 28 30 33 36 36 37 40 41 43 44 46 47 47 47 47 51 52 60 65 64 63 63 63 63 61 60 58 56 55 59 58 57 58 58
28 25 25 25 26 26 26 25 27 25 26 27 26 27 29 29 30 32 38 39 40 41 43 43 43 44 45 47 47 47 47 50 53 58 63 63 62 62 62 61 61 60 59 59 57 57 57 58 57
21 22 18 24 24 26 24 14 23 26 25 26 25 26 27 29 29 34 41 43 43 43 43 45 44 44 45 46 48 48 48 48 51 54 59 62 61 62 61 61 60 59 60 58 56 56 56 56 56
15 5 9 15 23 23 22 17 21 24 24 21 22 24 25 28 32 39 40 41 43 43 43 44 45 46 47 48 49 50 51 51 50 54 55 61 61 60 60 60 60 60 60 56 56 57 55 55 55
12 8 9 12 20 22 20 17 16 18 21 23 22 18 19 26 34 37 36 39 40 41 43 43 45 46 48 49 49 51 51 52 53 54 54 57 61 61 60 59 59 59 59 55 56 55 56 55 53
18 15 12 12 21 23 18 17 18 25 27 27 25 23 25 29 35 36 35 38 41 41 42 44 45 46 48 48 50 50 50 51 52 53 55 55 56 61 60 59 58 57 56 54 54 55 54 54 51
19 16 13 16 21 22 19 19 22 27 28 28 27 26 28 28 30 31 34 38 42 41 43 44 44 46 47 48 49 51 52 53 53 55 55 56 54 60 59 59 57 57 55 54 54 54 52 52 51
17 15 15 19 23 23 24 20 22 25 27 28 28 28 28 27 26 27 30 35 40 42 44 44 44 44 45 46 49 51 52 53 53 52 53 55 56 56 58 59 58 57 56 54 55 54 53 51 52
17 22 23 24 23 17 22 20 19 22 25 26 26 27 27 26 26 28 29 32 37 42 46 45 44 45 45 45 46 46 48 48 50 50 52 54 54 55 57 59 58 57 56 54 54 54 54 52 51
21 28 25 25 24 24 22 21 19 21 23 23 24 27 26 28 30 30 31 32 34 41 46 46 45 45 45 45 45 46 46 50 52 51 52 51 54 54 55 57 57 57 55 54 54 54 53 52 51
28 26 25 24 23 27 21 18 16 18 21 22 24 24 25 30 34 37 36 34 35 43 45 46 44 44 43 44 44 45 46 47 51 52 51 51 52 54 55 57 57 56 55 55 54 54 53 53 51
27 24 26 25 27 17 20 19 19 22 22 23 23 24 27 33 36 39 40 41 42 44 45 44 43 42 43 44 45 45 46 47 47 51 50 50 51 53 54 55 55 56 56 55 54 54 54 53 52
24 21 28 18 19 14 18 18 19 22 23 24 26 27 29 32 36 39 41 42 41 42 42 41 42 43 43 44 44 45 46 46 47 50 52 51 50 51 53 54 55 55 55 55 54 53 52 52 52
24 22 23 19 18 20 16 18 21 22 23 24 25 27 29 32 34 37 38 39 40 40 41 41 41 41 42 43 44 45 46 46 47 48 52 52 52 52 53 54 54 54 54 54 53 53 52 52 52
28 24 21 24 19 12 13 12 17 22 22 22 21 24 26 29 31 32 34 37 38 40 41 41 41 41 41 42 42 44 45 46 47 49 50 52 52 53 52 53 53 53 53 52 52 52 52 52 51
26 23 22 21 19 16 12 13 23 23 21 21 21 23 25 27 30 33 35 34 36 38 39 40 41 41 41 41 41 42 44 45 46 49 50 52 52 52 52 52 52 52 52 52 51 51 51 50 50
22 19 19 19 17 21 23 15 23 23 22 22 23 24 26 28 29 30 31 32 32 33 34 36 39 40 41 41 41 42 42 44 46 50 52 52 52 51 51 51 51 51 51 51 50 50 49 49 47
Lifted_Index
5 6 6 5 4 4 3 4 5 4 3 2 0 -2 -2 -2 -2 -2 -2 -2 -3 -3 -3 -4 -4 -4 -4 -4 -3 -3 -2 -3 -3 -3 -3 -3 -3 -2 -1 -1 -0 -1 -1 -2 -2 -2 -2 -2 -2
6 6 6 5 4 3 3 4 5 5 4 2 0 -1 -2 -2 -2 -2 -2 -2 -3 -3 -4 -4 -4 -5 -4 -4 -4 -3 -3 -3 -3 -3 -3 -3 -3 -2 -1 -1 -0 -0 -1 -2 -2 -2 -2 -2 -2
7 6 5 4 3 3 3 4 5 6 5 3 2 0 -0 -1 -0 -0 -1 -2 -4 -4 -4 -4 -5 -5 -5 -5 -4 -4 -3 -3 -3 -3 -3 -3 -3 -2 -2 -1 -0 -0 -0 -1 -2 -2 -2 -2 -2
7 6 5 4 3 3 4 5 5 6 5 4 3 2 1 1 2 3 1 -2 -4 -4 -4 -4 -5 -5 -5 -5 -5 -4 -4 -4 -3 -3 -3 -3 -3 -2 -2 -1 -1 -0 0 -1 -1 -2 -2 -2 -1
7 6 5 3 3 4 5 5 6 6 6 5 4 3 3 4 5 5 3 -0 -4 -5 -5 -5 -5 -5 -5 -5 -5 -5 -4 -4 -4 -3 -3 -3 -3 -2 -2 -1 -1 0 0 0 -1 -1 -2 -1 -1
7 6 4 3 3 4 5 6 6 6 6 5 5 4 4 5 6 6 5 2 -2 -5 -5 -5 -5 -5 -4 -4 -5 -5 -4 -4 -4 -4 -3 -3 -3 -3 -2 -1 -0 0 1 1 0 -1 -1 -1 -1
6 5 4 3 3 4 5 6 6 6 6 6 6 5 5 6 6 7 6 4 1 -3 -4 -5 -5 -5 -5 -4 -4 -4 -4 -4 -4 -4 -4 -3 -3 -3 -2 -1 0 1 1 1 1 -0 -1 -1 -1
6 5 4 3 3 4 6 7 7 7 7 7 7 6 6 7 7 7 7 5 4 2 -1 -3 -4 -5 -5 -5 -4 -4 -4 -4 -4 -4 -3 -3 -3 -2 -1 -0 1 1 2 2 1 0 -0 -0 -0
6 5 4 4 4 5 6 7 7 8 8 8 8 7 7 7 8 7 7 7 6 5 3 1 -2 -3 -4 -5 -5 -4 -4 -4 -4 -4 -3 -3 -2 -2 -1 0 1 2 2 2 1 1 0 0 1
6 5 5 5 6 6 7 7 7 7 7 8 8 8 8 8 8 8 8 7 7 7 6 5 3 1 -1 -3 -4 -5 -5 -4 -4 -4 -3 -3 -2 -1 -0 1 2 2 2 2 2 1 1 1 1
6 6 6 6 7 7 7 7 7 7 7 7 8 8 8 8 8 8 8 8 8 7 7 6 5 4 3 1 -2 -3 -4 -4 -4 -4 -3 -3 -2 -1 -0 1 3 3 3 3 2 2 2 2 2
6 6 7 7 7 7 7 7 7 7 7 7 8 8 8 8 8 8 8 8 7 7 6 6 6 6 5 4 2 -0 -2 -3 -4 -3 -3 -2 -2 -1 -0 1 3 3 4 3 2 2 3 3 2
7 7 7 8 8 7 7 7 7 7 7 8 8 8 8 8 8 8 7 7 7 7 7 7 7 7 6 6 5 3 1 -1 -3 -3 -3 -2 -2 -1 -1 1 2 3 3 3 2 2 3 3 2
8 7 7 7 7 7 7 7 7 7 7 7 8 8 8 7 7 7 7 7 6 7 7 7 7 7 7 7 6 6 4 2 -0 -2 -2 -2 -2 -1 -1 0 1 2 3 3 2 2 3 3 3
8 7 7 7 7 7 7 6 6 7 7 7 7 7 7 7 7 7 6 6 6 6 6 6 7 7 7 7 7 6 6 4 2 0 -1 -1 -1 -1 -0 0 1 1 2 2 3 3 3 3 3
7 7 6 7 7 8 7 6 6 7 7 7 7 7 7 7 7 6 5 5 6 6 6 6 6 6 6 6 6 6 6 5 4 2 1 0 -0 -0 -0 -0 -0 1 2 2 3 3 3 3 4
6 6 6 6 7 7 7 6 7 8 7 7 7 7 7 7 6 6 5 5 6 6 6 6 6 6 6 6 5 5 5 4 4 3 2 1 1 0 -0 -0 -0 0 1 2 2 3 3 3 4
5 5 5 6 7 7 6 7 8 8 8 7 7 7 7 6 6 6 6 6 6 6 6 6 6 6 6 6 5 5 4 4 3 3 2 2 1 1 1 1 0 0 1 1 2 3 4 4 4
5 5 5 6 7 6 6 6 7 8 8 7 7 7 6 6 6 6 6 6 6 5 6 6 6 6 5 5 5 5 4 4 3 3 2 2 2 1 1 1 1 1 1 1 2 3 4 4 4
6 5 5 6 7 6 5 5 6 7 7 7 7 7 6 6 6 6 6 6 5 5 5 5 5 5 5 5 5 4 4 4 4 4 3 2 2 2 2 2 2 2 2 2 3 3 4 4 4
6 5 5 6 6 6 5 5 5 7 7 7 7 7 6 6 7 7 6 6 5 5 5 5 5 5 5 5 5 4 4 4 4 4 4 3 2 2 2 2 2 2 2 2 3 3 4 4 4
6 6 6 6 5 5 4 4 5 6 7 7 7 7 7 7 7 7 7 6 5 5 4 4 5 5 5 5 5 5 4 4 4 4 4 3 3 3 2 2 3 3 3 3 3 3 4 4 4
7 7 7 6 5 4 4 4 5 6 6 6 7 7 7 7 7 6 6 6 6 5 4 4 4 4 5 5 5 5 5 4 4 4 4 4 3 3 3 3 3 3 3 3 3 4 4 4 4
8 7 6 5 4 3 4 4 5 5 6 6 7 7 7 7 6 6 5 5 5 4 4 4 4 4 4 5 5 5 5 5 4 4 4 4 4 4 3 3 3 3 3 4 4 4 4 4 4
7 6 4 3 2 2 4 4 5 5 6 6 7 7 7 6 6 5 5 4 4 4 4 4 4 4 5 5 5 5 5 5 4 3 3 4 4 4 4 3 3 3 3 4 4 4 4 4 4
6 5 4 2 1 2 4 4 5 6 7 7 7 7 7 7 6 5 5 4 4 4 4 4 5 5 5 5 4 4 4 4 4 4 3 3 4 4 4 4 4 4 4 4 4 3 3 4 4
6 6 5 3 2 2 3 4 5 6 6 7 7 7 7 7 7 6 6 6 5 5 5 5 5 5 6 5 4 4 4 4 4 4 3 3 3 3 3 4 4 4 4 4 4 3 3 3 4
6 6 5 4 2 2 2 4 5 6 6 6 6 6 7 7 8 7 7 6 6 6 6 6 5 5 6 6 5 4 4 4 4 4 4 3 3 3 3 4 4 4 4 4 4 4 3 4 4
6 6 5 4 3 2 2 4 5 5 6 6 6 6 7 8 8 8 7 7 7 6 6 6 5 6 6 6 5 4 4 3 3 3 3 3 3 4 4 4 4 4 4 4 4 4 4 4 3
6 6 5 4 3 3 3 4 5 6 6 6 6 6 7 8 8 8 8 7 7 6 6 6 6 6 6 6 5 5 4 3 3 3 3 3 3 4 4 4 4 4 4 4 4 4 4 3 3